sat.trackr.live / text

‹ back to catalog

SAPPHIRE

NORAD 39088 · 2013-009C

PAYLOAD ACTIVE UNKNOWN

§ Identity

Operator
Country
CA
Launch date
2013-02-25
Launch site
SRILR
Launch vehicle
Mass (kg)
RCS (m²)
0.60

Purposes: military

External: N2YO · Heavens-Above · Gunter

§ Orbital elements

Epoch: 2026-09-20T04:22:52.231872Z

Period
100.33 min
Inclination
98.4314°
Eccentricity
0.0010595
Mean motion
14.35260937 rev/d
Perigee alt
766.6 km
Apogee alt
781.8 km
Semi-major
7,152.3 km
B*
3.5093e-5
RAAN
80.4192°
Arg perigee
331.7551°
Mean anomaly
28.3059°
Rev number
71,020

§ Raw data

SAPPHIRE1 39088U 13009C   26263.18254898  .00000058  00000+0  35093-4 0  99912 39088  98.4314  80.4192 0010595 331.7551  28.3059 14.35260937710205

JSON: /api/v1/satellites/39088 · /tle

For live sub-satellite position, see the globe view (requires WebGL).

§ Visibility from observer

Set your observer location to see the next 7 days of passes ≥ 10°. The values pass through the URL so the page stays shareable.

No JS? Fill the form by hand. The geolocation button needs JavaScript.